Terminal Aerodrome Forecast
Issued by NWS

Home | Current Version | Previous Version | Text Only | Print | Product List | Glossary On
Versions: 1 2 3 4 5 6 7 8 9 10 11 12 13 14 15
000
FTUS45 KRIW 202337
TAFBPI
TAF
KBPI 202337Z 2100/2124 VRB04KT P6SM SCT040 BKN100
     FM210900 VRB04KT P6SM VCSH SCT015 OVC025
     FM211500 VRB04KT P6SM VCSH BKN015 OVC030
     FM212000 32007KT P6SM VCSH SCT020 OVC050=

USA.gov is the U.S. government's official web portal to all federal, state and local government web resources and services.